Regional Weather Roundup
Issued by NWS

Home | Current Version | Previous Version | Graphics & Text | Print | Product List | Glossary Off
Versions: 1 2 3 4 5 6 7 8 9 10 11 12 13 14 15 16 17 18 19 20 21 22 23 24 25 26 27 28 29 30 31 32 33 34 35 36 37 38 39 40 41 42 43 44 45 46 47 48 49 50

000
ASUS43 KTOP 191608
RWRKS

WEATHER ROUNDUP FOR KANSAS
NATIONAL WEATHER SERVICE GOODLAND KS
1100 AM CDT SAT APR 19 2014

NOTE:  "FAIR" INDICATES FEW OR NO CLOUDS BELOW 12,000 FEET WITH NO
SIGNIFICANT WEATHER AND/OR OBSTRUCTIONS TO VISIBILITY.

KSZ001>006-013>018-027>032-041>047-191700-
NORTHWEST KANSAS

CITY           SKY/WX    TMP DP  RH WIND       PRES   REMARKS
GOODLAND       MOSUNNY   64  45  49 N21       29.94R
HAYS           MOSUNNY   70  48  46 S33G41    29.94F
HILL CITY      PTSUNNY   68  46  45 S18G26    29.92S
RUSSELL        MOSUNNY   71  49  45 S31G39    29.95F
$$

KSZ061>065-074>080-084>089-191700-
SOUTHWEST KANSAS

CITY           SKY/WX    TMP DP  RH WIND       PRES   REMARKS
DODGE CITY     MOSUNNY   68  48  48 S29G39    30.00S
ELKHART          N/A     65  43  45 SW15        N/A
GARDEN CITY    PTSUNNY   65  47  52 SW20      29.97S
GREAT BEND     MOSUNNY   68  50  52 S33G43    29.97S
LIBERAL        CLOUDY    64  46  52 SW24G30   30.02S
PRATT          SUNNY     68  48  49 S32       30.04S
$$

KSZ066>073-081>083-090>101-191700-
SOUTHEAST KANSAS

CITY           SKY/WX    TMP DP  RH WIND       PRES   REMARKS
CHANUTE        MOSUNNY   68  46  45 S18       30.18F
COFFEYVILLE    PTSUNNY   71  49  45 S15       30.19S
HUTCHINSON     PTSUNNY   69  47  45 S22G35    30.06F
MEDICINE LODGE   N/A     75  49  39 S29G37    30.05F
NEWTON         CLOUDY    66  43  42 S29G36    30.12F
PARSONS        MOSUNNY   70  48  45 S15G23    30.20S
WICHITA INTL   CLOUDY    69  46  43 S23G33    30.10F
WICHITA JABRA  CLOUDY    68  46  45 S22G31    30.11F
WICHITA MCCONL CLOUDY    67  46  46 S25G31    30.12S
WINFIELD       PTSUNNY   70  46  42 S18G32    30.15F
$$

KSZ007>012-019>026-033>040-048>060-102>105-191700-
NORTHEAST KANSAS

CITY           SKY/WX    TMP DP  RH WIND       PRES   REMARKS
CONCORDIA      PTSUNNY   67  49  52 S24G35    30.01S
EMPORIA        PTSUNNY   69  45  41 S21G28    30.12F
LAWRENCE       MOSUNNY   70  46  42 S13       30.14F
MANHATTAN      PTSUNNY   72  45  37 S20G32    30.06F
OLATHE IND     MOSUNNY   69  47  45 S14       30.16F
OLATHE EXE     MOSUNNY   67  46  47 S14       30.15F
SALINA         CLOUDY    70  48  45 S28G39    30.04S
TOPEKA BILLARD MOSUNNY   71  45  39 S13G20    30.12F
TOPEKA FORBES  PTSUNNY   70  44  39 S18G25    30.11F
$$



USA.gov is the U.S. government's official web portal to all federal, state and local government web resources and services.